�������l�o���
Date,Time,MP-1(��Sv/h),MP-2(��Sv/h),MP-3(��Sv/h),MP-4(��Sv/h),MP-5(��Sv/h),MP-6(��Sv/h),MP-7(��Sv/h),MP-8(��Sv/h),����,����(m/s),���J
2020/10/21,00:00,0.653,0.937,0.593,1.147,0.823,0.380,0.663,0.627,�k�k��,4.8,��
2020/10/21,00:10,0.654,0.934,0.593,1.145,0.824,0.381,0.662,0.626,�k�k��,3.9,��
2020/10/21,00:20,0.656,0.936,0.594,1.146,0.824,0.380,0.662,0.626,�k,4.8,��
2020/10/21,00:30,0.653,0.937,0.593,1.147,0.824,0.381,0.662,0.627,�k�k��,4.5,��
2020/10/21,00:40,0.653,0.935,0.593,1.146,0.825,0.380,0.662,0.626,�k�k��,4.0,��
2020/10/21,00:50,0.655,0.935,0.591,1.146,0.825,0.379,0.664,0.627,�k,4.2,��
2020/10/21,01:00,0.655,0.934,0.592,1.144,0.824,0.380,0.661,0.626,�k�k��,4.3,��
2020/10/21,01:10,0.654,0.935,0.591,1.148,0.822,0.381,0.662,0.625,�k,3.5,��
2020/10/21,01:20,0.654,0.935,0.591,1.147,0.823,0.379,0.664,0.626,�k�k��,4.1,��
2020/10/21,01:30,0.652,0.936,0.591,1.146,0.822,0.381,0.663,0.626,�k�k��,3.8,��
2020/10/21,01:40,0.653,0.934,0.591,1.145,0.824,0.381,0.663,0.627,�k�k��,3.9,��
2020/10/21,01:50,0.654,0.936,0.592,1.144,0.824,0.381,0.663,0.626,�k�k��,4.4,��
2020/10/21,02:00,0.655,0.936,0.594,1.143,0.823,0.381,0.662,0.626,�k�k��,4.8,��
2020/10/21,02:10,0.652,0.937,0.593,1.146,0.825,0.380,0.661,0.628,�k�k��,4.2,��
2020/10/21,02:20,0.653,0.935,0.592,1.147,0.822,0.380,0.661,0.627,�k�k��,5.2,��
2020/10/21,02:30,0.655,0.936,0.593,1.143,0.824,0.380,0.662,0.626,�k��,5.4,��
2020/10/21,02:40,0.655,0.935,0.593,1.146,0.825,0.382,0.662,0.627,�k��,5.3,��
2020/10/21,02:50,0.654,0.936,0.591,1.147,0.823,0.380,0.663,0.627,�k�k��,5.0,��
2020/10/21,03:00,0.653,0.936,0.594,1.146,0.824,0.380,0.661,0.626,�k�k��,4.7,��
2020/10/21,03:10,0.655,0.937,0.595,1.145,0.825,0.381,0.662,0.627,�k�k��,4.5,��
2020/10/21,03:20,0.653,0.933,0.592,1.148,0.823,0.380,0.662,0.626,�k�k��,4.4,��
2020/10/21,03:30,0.653,0.934,0.593,1.146,0.824,0.380,0.663,0.626,�k�k��,4.6,��
2020/10/21,03:40,0.654,0.933,0.593,1.145,0.822,0.381,0.664,0.627,�k�k��,4.4,��
2020/10/21,03:50,0.653,0.934,0.592,1.148,0.826,0.381,0.663,0.626,�k�k��,4.6,��
2020/10/21,04:00,0.654,0.935,0.593,1.146,0.822,0.380,0.663,0.626,�k�k��,5.3,��
2020/10/21,04:10,0.653,0.936,0.592,1.149,0.823,0.381,0.664,0.626,�k�k��,5.6,��
2020/10/21,04:20,0.654,0.935,0.592,1.148,0.824,0.381,0.664,0.626,�k�k��,5.8,��
2020/10/21,04:30,0.654,0.935,0.594,1.148,0.823,0.379,0.662,0.626,�k�k��,5.9,��
2020/10/21,04:40,0.654,0.935,0.593,1.148,0.823,0.380,0.662,0.626,�k�k��,5.5,��
2020/10/21,04:50,0.653,0.936,0.594,1.149,0.824,0.381,0.663,0.626,�k�k��,6.4,��
2020/10/21,05:00,0.655,0.935,0.593,1.147,0.824,0.380,0.663,0.626,�k�k��,6.6,��
2020/10/21,05:10,0.654,0.933,0.593,1.149,0.823,0.380,0.663,0.626,�k�k��,5.7,��
2020/10/21,05:20,0.654,0.935,0.594,1.148,0.824,0.379,0.662,0.628,�k�k��,6.4,��
2020/10/21,05:30,0.653,0.933,0.593,1.146,0.824,0.380,0.664,0.625,�k�k��,6.5,��
2020/10/21,05:40,0.652,0.934,0.592,1.148,0.822,0.380,0.661,0.625,�k�k��,6.8,��
2020/10/21,05:50,0.654,0.933,0.593,1.147,0.824,0.379,0.663,0.627,�k��,7.1,��
2020/10/21,06:00,0.653,0.935,0.592,1.147,0.822,0.381,0.663,0.626,�k�k��,7.0,��
2020/10/21,06:10,0.653,0.934,0.592,1.148,0.823,0.379,0.662,0.626,�k�k��,6.5,��
2020/10/21,06:20,0.655,0.934,0.592,1.148,0.825,0.381,0.661,0.627,�k�k��,6.5,��
2020/10/21,06:30,0.654,0.936,0.593,1.146,0.824,0.379,0.664,0.626,�k�k��,6.8,��
2020/10/21,06:40,0.655,0.935,0.592,1.147,0.823,0.379,0.661,0.627,�k�k��,6.5,��
2020/10/21,06:50,0.654,0.934,0.592,1.147,0.823,0.379,0.664,0.625,�k�k��,6.7,��
2020/10/21,07:00,0.653,0.935,0.592,1.146,0.822,0.380,0.663,0.627,�k�k��,6.6,��
2020/10/21,07:10,0.653,0.936,0.593,1.146,0.824,0.381,0.662,0.626,�k�k��,6.7,��
2020/10/21,07:20,0.653,0.932,0.594,1.147,0.823,0.379,0.663,0.626,�k�k��,5.7,��
2020/10/21,07:30,0.655,0.935,0.590,1.147,0.823,0.379,0.663,0.626,�k�k��,7.1,��
2020/10/21,07:40,0.655,0.935,0.594,1.147,0.824,0.379,0.661,0.627,�k�k��,6.3,��
2020/10/21,07:50,0.654,0.936,0.591,1.146,0.825,0.380,0.662,0.627,�k�k��,6.4,��
2020/10/21,08:00,0.655,0.935,0.592,1.148,0.822,0.381,0.663,0.627,�k�k��,6.4,��
2020/10/21,08:10,0.655,0.934,0.594,1.148,0.825,0.381,0.662,0.627,�k�k��,5.4,��
2020/10/21,08:20,0.654,0.935,0.593,1.149,0.824,0.380,0.662,0.628,�k�k��,5.8,��
2020/10/21,08:30,0.657,0.934,0.593,1.146,0.824,0.380,0.661,0.627,�k�k��,5.2,��
2020/10/21,08:40,0.656,0.937,0.593,1.148,0.825,0.380,0.661,0.628,�k�k��,4.6,��
2020/10/21,08:50,0.657,0.936,0.594,1.148,0.824,0.381,0.663,0.629,�k,3.4,��
2020/10/21,09:00,0.657,0.936,0.593,1.146,0.824,0.381,0.662,0.628,�k,3.1,��
2020/10/21,09:10,0.658,0.935,0.594,1.148,0.824,0.381,0.663,0.628,�k,2.6,��
2020/10/21,09:20,0.657,0.928,0.593,1.147,0.825,0.381,0.663,0.627,�k,3.3,��
2020/10/21,09:30,0.655,0.932,0.593,1.145,0.825,0.380,0.662,0.626,�k�k��,3.6,��
2020/10/21,09:40,0.655,0.933,0.593,1.145,0.822,0.379,0.664,0.628,�k,4.0,��
2020/10/21,09:50,0.655,0.933,0.592,1.147,0.825,0.379,0.662,0.624,�k�k��,3.3,��
2020/10/21,10:00,0.655,0.932,0.591,1.148,0.823,0.379,0.663,0.625,�k�k��,4.0,��
2020/10/21,10:10,0.655,0.932,0.592,1.146,0.823,0.379,0.662,0.627,�k�k��,3.0,��
2020/10/21,10:20,0.655,0.933,0.590,1.144,0.824,0.379,0.663,0.627,�k�k��,3.2,��
2020/10/21,10:30,0.655,0.935,0.591,1.145,0.823,0.377,0.664,0.626,�k�k��,4.2,��
2020/10/21,10:40,0.654,0.933,0.593,1.149,0.825,0.378,0.661,0.625,�k�k��,4.3,��
2020/10/21,10:50,0.656,0.936,0.590,1.148,0.822,0.378,0.663,0.625,�k�k��,3.1,��
2020/10/21,11:00,0.655,0.934,0.592,1.150,0.825,0.379,0.663,0.625,�k�k��,3.0,��
2020/10/21,11:10,0.653,0.935,0.593,1.148,0.824,0.378,0.663,0.626,�k��,3.1,��
2020/10/21,11:20,0.655,0.932,0.594,1.149,0.826,0.379,0.662,0.626,�k�k��,4.3,��
2020/10/21,11:30,0.652,0.935,0.594,1.148,0.825,0.379,0.664,0.625,�k�k��,4.3,��
2020/10/21,11:40,0.655,0.935,0.593,1.148,0.823,0.379,0.663,0.626,�k�k��,3.4,��
2020/10/21,11:50,0.655,0.938,0.592,1.150,0.825,0.379,0.663,0.625,�k�k��,2.6,��
2020/10/21,12:00,0.653,0.937,0.592,1.148,0.824,0.379,0.662,0.625,�k�k��,3.4,��
2020/10/21,12:10,0.655,0.937,0.593,1.148,0.825,0.379,0.662,0.627,�k�k��,3.7,��
2020/10/21,12:20,0.654,0.937,0.595,1.148,0.825,0.380,0.662,0.626,�k��,4.0,��
2020/10/21,12:30,0.656,0.937,0.593,1.149,0.828,0.379,0.662,0.624,�k�k��,3.6,��
2020/10/21,12:40,0.654,0.938,0.591,1.150,0.826,0.380,0.663,0.626,�k�k��,4.0,��
2020/10/21,12:50,0.655,0.936,0.595,1.147,0.829,0.379,0.663,0.627,�k�k��,4.0,��
2020/10/21,13:00,0.655,0.936,0.594,1.148,0.826,0.379,0.663,0.626,�k��,3.7,��
2020/10/21,13:10,0.655,0.935,0.593,1.149,0.828,0.379,0.664,0.626,�k�k��,3.8,��
2020/10/21,13:20,0.655,0.935,0.593,1.148,0.829,0.379,0.663,0.626,�k�k��,3.4,��
2020/10/21,13:30,0.655,0.935,0.593,1.148,0.825,0.379,0.664,0.625,���k��,3.8,��
2020/10/21,13:40,0.658,0.937,0.594,1.149,0.828,0.380,0.666,0.625,�k��,2.5,��
2020/10/21,13:50,0.655,0.937,0.593,1.149,0.828,0.379,0.663,0.625,�k��,3.5,��
2020/10/21,14:00,0.657,0.933,0.595,1.150,0.828,0.380,0.667,0.626,�k��,3.2,��
2020/10/21,14:10,0.656,0.937,0.593,1.150,0.827,0.380,0.663,0.624,���k��,3.2,��
2020/10/21,14:20,0.653,0.935,0.592,1.151,0.828,0.379,0.662,0.626,���k��,3.5,��
2020/10/21,14:30,0.655,0.935,0.595,1.148,0.829,0.379,0.662,0.626,���k��,3.2,��
2020/10/21,14:40,0.657,0.935,0.595,1.149,0.828,0.380,0.663,0.625,��,3.0,��
2020/10/21,14:50,0.655,0.936,0.595,1.148,0.828,0.380,0.664,0.624,��,3.6,��
2020/10/21,15:00,0.653,0.937,0.595,1.149,0.827,0.378,0.664,0.626,��,3.5,��
2020/10/21,15:10,0.654,0.937,0.596,1.148,0.828,0.379,0.664,0.625,���k��,4.0,��
2020/10/21,15:20,0.656,0.938,0.595,1.153,0.827,0.381,0.663,0.626,���k��,3.4,��
2020/10/21,15:30,0.656,0.936,0.593,1.150,0.829,0.380,0.663,0.625,���k��,4.3,��
2020/10/21,15:40,0.655,0.937,0.593,1.150,0.829,0.380,0.663,0.626,���k��,5.5,��
2020/10/21,15:50,0.656,0.937,0.594,1.150,0.829,0.381,0.664,0.626,���k��,4.5,��
2020/10/21,16:00,0.656,0.940,0.594,1.151,0.829,0.382,0.662,0.625,��,4.1,��
2020/10/21,16:10,0.655,0.940,0.593,1.149,0.829,0.382,0.664,0.626,��,3.9,��
2020/10/21,16:20,0.655,0.941,0.594,1.153,0.829,0.381,0.664,0.627,���k��,2.5,��
2020/10/21,16:30,0.656,0.941,0.593,1.150,0.827,0.383,0.665,0.629,���k��,3.0,��
2020/10/21,16:40,0.656,0.943,0.593,1.150,0.827,0.382,0.664,0.628,��,2.6,��
2020/10/21,16:50,0.656,0.944,0.595,1.149,0.828,0.382,0.666,0.628,��,3.2,��
2020/10/21,17:00,0.654,0.942,0.595,1.149,0.829,0.381,0.664,0.627,��,4.1,��
2020/10/21,17:10,0.656,0.944,0.596,1.149,0.829,0.381,0.665,0.628,��,3.5,��
2020/10/21,17:20,0.657,0.944,0.598,1.150,0.829,0.380,0.663,0.628,���쓌,2.2,��
2020/10/21,17:30,0.655,0.945,0.595,1.151,0.831,0.381,0.664,0.627,��,2.6,��
2020/10/21,17:40,0.658,0.944,0.596,1.150,0.831,0.382,0.665,0.629,���k��,3.2,��
2020/10/21,17:50,0.655,0.944,0.596,1.150,0.829,0.381,0.664,0.629,�k��,1.7,��
2020/10/21,18:00,0.655,0.939,0.597,1.152,0.830,0.381,0.665,0.626,-,CALM,��
2020/10/21,18:10,0.654,0.944,0.597,1.151,0.834,0.381,0.664,0.628,���쐼,0.6,��
2020/10/21,18:20,0.655,0.945,0.596,1.152,0.831,0.381,0.664,0.627,�k��,1.4,��
2020/10/21,18:30,0.654,0.944,0.598,1.148,0.832,0.381,0.664,0.629,�k��,1.7,��
2020/10/21,18:40,0.654,0.942,0.595,1.153,0.832,0.381,0.664,0.627,�k��,2.5,��
2020/10/21,18:50,0.657,0.942,0.596,1.150,0.832,0.382,0.663,0.628,�k��,3.2,��
2020/10/21,19:00,0.654,0.942,0.594,1.150,0.832,0.382,0.664,0.628,�k��,2.3,��
2020/10/21,19:10,0.654,0.944,0.596,1.152,0.830,0.379,0.664,0.629,�k��,2.3,��
2020/10/21,19:20,0.654,0.944,0.596,1.152,0.831,0.382,0.664,0.628,�k�k��,1.5,��
2020/10/21,19:30,0.656,0.946,0.595,1.152,0.831,0.381,0.662,0.628,�k�k��,1.5,��
2020/10/21,19:40,0.655,0.943,0.596,1.153,0.831,0.381,0.663,0.628,�k,1.7,��
2020/10/21,19:50,0.655,0.944,0.595,1.151,0.834,0.383,0.664,0.627,�k�k��,2.3,��
2020/10/21,20:00,0.655,0.942,0.595,1.152,0.829,0.382,0.663,0.626,�k�k��,2.0,��
2020/10/21,20:10,0.655,0.943,0.596,1.152,0.829,0.381,0.664,0.629,�k��,2.5,��
2020/10/21,20:20,0.654,0.943,0.597,1.150,0.831,0.381,0.666,0.628,���k��,3.0,��
2020/10/21,20:30,0.655,0.942,0.596,1.152,0.828,0.381,0.663,0.629,���k��,2.3,��
2020/10/21,20:40,0.655,0.942,0.595,1.153,0.831,0.381,0.665,0.627,�k��,2.0,��
2020/10/21,20:50,0.656,0.942,0.597,1.153,0.831,0.382,0.664,0.629,�k�k��,1.5,��
2020/10/21,21:00,0.655,0.942,0.596,1.153,0.831,0.382,0.664,0.628,�k�k��,2.0,��
2020/10/21,21:10,0.655,0.940,0.596,1.152,0.832,0.381,0.665,0.629,�k��,1.7,��
2020/10/21,21:20,0.657,0.944,0.595,1.152,0.830,0.381,0.664,0.628,���k��,1.2,��
2020/10/21,21:30,0.655,0.944,0.595,1.153,0.829,0.382,0.664,0.629,�k��,1.2,��
2020/10/21,21:40,0.655,0.940,0.597,1.153,0.830,0.382,0.664,0.628,�k,1.4,��
2020/10/21,21:50,0.653,0.942,0.596,1.153,0.832,0.381,0.663,0.629,�k�k��,1.1,��
2020/10/21,22:00,0.656,0.942,0.595,1.150,0.831,0.381,0.665,0.627,���k��,1.7,��
2020/10/21,22:10,0.656,0.943,0.596,1.152,0.831,0.382,0.664,0.628,���k��,2.5,��
2020/10/21,22:20,0.655,0.942,0.596,1.152,0.832,0.382,0.663,0.628,���k��,2.3,��
2020/10/21,22:30,0.656,0.941,0.598,1.154,0.832,0.381,0.665,0.629,���k��,2.3,��
2020/10/21,22:40,0.657,0.941,0.595,1.153,0.830,0.381,0.663,0.629,�k��,1.7,��
2020/10/21,22:50,0.657,0.942,0.594,1.153,0.830,0.382,0.666,0.628,�k��,2.5,��
2020/10/21,23:00,0.656,0.945,0.597,1.151,0.827,0.382,0.664,0.629,���k��,2.0,��
2020/10/21,23:10,0.656,0.941,0.597,1.153,0.831,0.381,0.665,0.629,���k��,1.7,��
2020/10/21,23:20,0.656,0.941,0.596,1.152,0.830,0.382,0.665,0.629,���k��,2.0,��
2020/10/21,23:30,0.656,0.943,0.597,1.152,0.831,0.381,0.665,0.629,���k��,2.2,��
2020/10/21,23:40,0.657,0.942,0.595,1.152,0.832,0.380,0.666,0.629,��,1.5,��
2020/10/21,23:50,0.657,0.942,0.597,1.153,0.832,0.383,0.664,0.628,�k��,1.2,��
